[[{"header":{"parameterUnit":"m.s-1","parameterCategory":1,"la1":30.2991,"la2":30.254,"lo1":-89.0895,"lo2":-89.0444,"dy":0.0017,"dx":0.0017,"nx":28,"ny":28,"refTime":"2025-07-20T09:00:00:Z","depth":0,"parameterNumber":2,"parameterNumberName":"U-component_of_WINDS"},"data":[0,0,0,0,0,0,0,0,0,0,0,0,0,0,0,0,0,0,0,0,0,0,0,0,0,0,0,0,0,0,0,0,0,0,0,0,0,0,0,0,0,0,0,0,0,0,0,0,0,0,0,0,0,0,0,0,0,0,4.135,4.1351,0,4.1489,4.1491,4.1492,4.1411,4.1407,4.1403,4.14,4.1547,4.1554,4.1562,0,0,0,0,0,0,0,0,0,0,0,0,0,4.1016,4.1022,4.135,4.1351,4.1353,4.1489,4.1491,4.1493,4.1412,4.1407,4.1402,4.1398,4.1544,4.1553,4.1562,0,0,0,0,0,0,0,0,0,0,0,0,0,4.1159,4.1024,4.1349,4.1329,4.1329,4.1488,4.1491,4.1493,4.1413,4.1407,4.1401,4.1396,4.1541,4.1552,4.1563,4.1752,0,0,4.1598,4.1603,0,0,0,0,0,0,0,0,4.1151,4.1171,4.133,4.1331,4.1331,4.1427,4.1427,4.158,4.1415,4.1381,4.14,4.1393,4.1512,4.1525,4.1564,4.1759,4.1765,4.1599,4.1606,4.1611,4.1614,0,0,0,0,0,0,0,4.1141,4.1165,4.1405,4.1333,4.1333,4.1314,4.1328,4.1455,4.1478,4.1384,4.1378,4.1395,4.1511,4.1554,4.1567,4.1768,4.1599,4.1609,4.1616,4.1621,4.2122,4.2128,0,0,0,0,0,0,4.1132,4.1157,4.14,4.1409,4.1224,4.1325,4.134,4.1402,4.1476,4.1482,4.14,4.1391,4.1537,4.1554,4.1572,4.1797,4.1611,4.1622,4.1628,4.2116,4.2123,4.2131,0,0,0,0,0,0,4.1125,4.1154,4.1395,4.1281,4.1311,4.1337,4.1407,4.1408,4.145,4.1489,4.1493,4.144,4.1533,4.1556,4.1707,4.1801,4.1627,4.1637,4.2108,4.2118,4.2127,4.2248,0,0,0,0,0,0,4.1116,4.1152,4.1224,4.1284,4.1317,4.1527,4.1413,4.1415,4.147,4.1459,4.1527,4.1533,4.153,4.1691,4.1719,4.1813,4.1646,4.21,4.2112,4.2124,4.2236,4.2261,4.2282,0,0,0,0,0,4.1104,4.1254,4.1228,4.1258,4.1407,4.1533,4.1552,4.1545,4.1478,4.155,4.1574,4.1531,4.1786,4.1707,4.1738,4.1837,4.2094,4.2109,4.2123,4.2226,4.2256,4.2282,0,0,0,0,0,0,4.1207,4.1262,4.1233,4.1407,4.1466,4.1519,4.161,4.1577,4.1658,4.1644,4.1633,4.1649,4.1806,4.1837,4.1748,4.2023,4.1929,4.1951,4.1997,4.2026,4.2049,4.2038,4.1655,0,0,0,0,0,4.1249,4.1346,4.1389,4.1538,4.1569,4.1585,4.1639,4.1628,4.1689,4.1714,4.1749,4.1811,4.1905,4.1967,4.2056,4.224,4.2253,4.2323,4.2346,4.2365,4.2384,4.2482,4.2513,4.2179,4.2178,4.2178,0,0,4.1339,4.1381,4.1443,4.156,4.1604,4.1705,4.1606,4.1718,4.1792,4.1731,4.1875,4.1904,4.1972,4.214,4.2216,4.217,4.2479,4.2384,4.2398,4.2407,4.25,4.2532,4.256,4.2188,4.2187,4.2185,0,0,4.1553,4.1595,4.1722,4.1768,4.1835,4.1844,4.1875,4.1933,4.1949,4.2093,4.2049,4.2138,4.23,4.235,4.2397,4.2628,4.259,4.2657,4.2778,4.2873,4.29,4.2923,4.3004,4.3034,4.2675,4.2676,4.2676,0,4.1656,4.1805,4.1792,4.1907,4.1959,4.1906,4.2035,4.2081,4.2175,4.2212,4.2159,4.236,4.2403,4.2581,4.2637,4.2677,4.2711,4.2649,4.2897,4.292,4.2942,4.3019,4.305,4.2683,4.2682,4.2682,4.2681,0,4.1928,4.2032,4.2127,4.2216,4.228,4.2401,4.2407,4.2472,4.2456,4.247,4.2617,4.2666,4.2762,4.2804,4.279,4.298,4.2949,4.2897,4.2803,4.2981,4.3054,4.3084,4.2694,4.2691,4.2689,4.2687,0,0,4.2212,4.2291,4.2326,4.2365,4.2434,4.2515,4.2634,4.2726,4.2782,4.2849,4.2947,4.3085,4.3036,4.3089,4.308,4.3164,4.3342,4.3101,4.3103,4.3144,4.3553,4.3592,4.3626,4.3317,4.3323,4.3327,4.3547,0,4.243,4.2635,4.2626,4.2818,4.2914,4.2864,4.2967,4.3022,4.3038,4.3122,4.3141,4.3238,4.3167,4.3198,4.3279,4.3303,4.3424,4.3287,4.341,4.3414,4.3393,4.3664,4.3706,4.3911,4.3576,4.3581,4.3584,0,4.2711,4.2784,4.2986,4.3039,4.3079,4.3172,4.3255,4.3336,4.3396,4.3402,4.346,4.3436,4.3557,4.3459,4.3624,4.3532,4.3581,4.36,4.3608,4.3619,4.351,4.3682,4.3976,4.4007,4.3629,4.3625,4.3622,0,4.2897,4.3046,4.3185,4.322,4.3286,4.3352,4.3383,4.3437,4.3493,4.3566,4.3602,4.3689,4.3737,4.3805,4.3806,4.3735,4.3973,4.3876,4.3981,4.3981,4.4034,4.403,4.4339,4.4067,4.4066,4.4066,4.4065,0,4.3141,4.3266,4.3269,4.3355,4.3493,4.3481,4.3619,4.3643,4.3691,4.3781,4.3744,4.3829,4.3825,4.3912,4.3913,4.4049,4.4071,4.408,4.4079,4.4083,4.4082,4.4115,4.4101,4.4074,4.4072,4.407,4.4069,0,4.3372,4.3379,4.3527,4.3576,4.3592,4.3691,4.3734,4.3815,4.3828,4.3942,4.3968,4.3988,4.4088,4.4095,4.4211,4.4212,4.4377,4.4361,4.4356,4.4353,4.4458,4.4447,4.4799,4.4844,4.4542,4.4545,4.4548,0,4.3526,4.3621,4.368,4.3736,4.377,4.3862,4.3918,4.391,4.397,4.4044,4.4117,4.4212,4.4288,4.445,4.4476,4.4564,4.4549,4.4666,4.4563,4.4563,4.455,4.4544,4.4553,4.4687,4.469,4.4693,4.4695,0,4.38,4.3798,4.3879,4.3962,4.4029,4.4094,4.4154,4.4203,4.4202,4.4272,4.4372,4.4431,4.4548,4.4643,4.4729,4.4761,4.4729,4.4727,4.4756,4.4761,4.4754,4.4758,4.441,4.4719,4.4717,4.4715,4.4714,4.4713,4.3997,4.4078,4.4131,4.4222,4.4266,4.4323,4.4401,4.4423,4.4506,4.4599,4.459,4.4701,4.4757,4.4869,4.4908,4.4995,4.4955,4.4998,4.5008,4.5019,4.5029,4.474,4.5011,4.501,4.501,4.5009,4.5009,0,4.4267,4.4299,4.4383,4.4467,4.4539,4.4499,4.4564,4.4627,4.4724,4.4779,4.4854,4.4969,4.506,4.5093,4.5182,4.5246,4.5233,4.527,4.5265,4.5272,4.506,4.5025,4.5278,4.5278,4.5278,4.5278,4.5278,4.5278,4.4417,4.4551,4.4555,4.4711,4.4741,4.4848,4.4888,4.4941,4.4984,4.5113,4.5188,4.5208,4.5254,4.5346,4.5428,4.5435,4.547,4.5513,4.5514,4.5315,4.5288,4.5262,4.5229,4.5521,4.5521,4.5719,4.5721,4.5722]},{"header":{"parameterUnit":"m.s-1","parameterCategory":1,"la1":30.2991,"la2":30.254,"lo1":-89.0895,"lo2":-89.0444,"dy":0.0017,"dx":0.0017,"nx":28,"ny":28,"refTime":"2025-07-20T09:00:00:Z","depth":0,"parameterNumber":3,"parameterNumberName":"V-component_of_WINDS"},"data":[0,0,0,0,0,0,0,0,0,0,0,0,0,0,0,0,0,0,0,0,0,0,0,0,0,0,0,0,0,0,0,0,0,0,0,0,0,0,0,0,0,0,0,0,0,0,0,0,0,0,0,0,0,0,0,0,0,0,1.9239,1.9238,0,1.9208,1.9208,1.9208,1.9145,1.9144,1.9142,1.9141,1.911,1.9111,1.9111,0,0,0,0,0,0,0,0,0,0,0,0,0,1.9241,1.9242,1.9239,1.9238,1.9238,1.9208,1.9208,1.9207,1.9145,1.9144,1.9142,1.9141,1.911,1.9111,1.9111,0,0,0,0,0,0,0,0,0,0,0,0,0,1.9229,1.9242,1.9239,1.9203,1.92,1.9208,1.9208,1.9207,1.9145,1.9144,1.9142,1.914,1.911,1.9111,1.9111,1.9152,0,0,1.9113,1.9113,0,0,0,0,0,0,0,0,1.923,1.9229,1.9209,1.9206,1.9202,1.9178,1.9198,1.9189,1.9146,1.9166,1.9141,1.9139,1.9135,1.9133,1.9131,1.9151,1.9149,1.9113,1.9113,1.9113,1.9114,0,0,0,0,0,0,0,1.923,1.923,1.9227,1.9208,1.9204,1.9188,1.9185,1.9196,1.9161,1.9164,1.916,1.9157,1.9132,1.9131,1.913,1.9149,1.9113,1.9113,1.9114,1.9114,1.9198,1.92,0,0,0,0,0,0,1.9237,1.9231,1.9227,1.9226,1.9211,1.919,1.9186,1.9188,1.9161,1.9155,1.9158,1.9154,1.9131,1.913,1.9129,1.9174,1.9113,1.9114,1.9114,1.9196,1.9199,1.9201,0,0,0,0,0,0,1.9237,1.9237,1.9229,1.9227,1.9225,1.9192,1.9195,1.9188,1.9187,1.9157,1.915,1.9164,1.913,1.9128,1.9146,1.9172,1.9114,1.9115,1.9194,1.9197,1.92,1.9265,0,0,0,0,0,0,1.9237,1.9237,1.9253,1.9228,1.9225,1.9247,1.9197,1.9189,1.9188,1.9182,1.916,1.9154,1.9128,1.9146,1.9147,1.9172,1.9115,1.9192,1.9195,1.9199,1.926,1.927,1.9278,0,0,0,0,0,1.9238,1.9273,1.9254,1.9254,1.9244,1.9249,1.9247,1.9216,1.919,1.9205,1.9186,1.9155,1.9169,1.9148,1.9149,1.9174,1.919,1.9194,1.9199,1.9256,1.9268,1.9277,0,0,0,0,0,0,1.9302,1.9269,1.9248,1.9276,1.9266,1.9238,1.9256,1.923,1.9227,1.9221,1.9183,1.9178,1.9201,1.9189,1.9167,1.9211,1.9175,1.9179,1.9218,1.9229,1.9237,1.924,1.9116,0,0,0,0,0,1.932,1.9327,1.9297,1.9325,1.9321,1.929,1.9291,1.9268,1.9255,1.9251,1.9233,1.9222,1.9223,1.9226,1.9226,1.9258,1.9252,1.9276,1.9285,1.9292,1.9296,1.9311,1.9321,1.9215,1.9215,1.9215,0,0,1.9356,1.9339,1.9346,1.9338,1.9327,1.9335,1.9287,1.9297,1.9302,1.9252,1.9268,1.9254,1.924,1.9265,1.9275,1.9256,1.9324,1.9297,1.9303,1.9304,1.9316,1.9327,1.9335,1.9218,1.9217,1.9217,0,0,1.9426,1.9415,1.9435,1.9425,1.941,1.9388,1.9394,1.937,1.9359,1.9374,1.9336,1.9341,1.9346,1.9336,1.9332,1.9397,1.9369,1.9398,1.9444,1.9459,1.9467,1.9474,1.9496,1.9505,1.9403,1.9403,1.9403,0,1.9474,1.9484,1.945,1.9462,1.9459,1.9414,1.9435,1.9427,1.9412,1.9411,1.9389,1.9393,1.938,1.9401,1.9417,1.9416,1.942,1.9401,1.9468,1.9475,1.9482,1.9502,1.9511,1.9407,1.9406,1.9406,1.9406,0,1.9542,1.955,1.9569,1.9555,1.9554,1.9571,1.9538,1.9542,1.9518,1.9499,1.9514,1.9497,1.9492,1.9496,1.9474,1.9514,1.9502,1.9476,1.9437,1.9496,1.9514,1.9522,1.9412,1.9411,1.941,1.9409,0,0,1.9653,1.9619,1.9626,1.9619,1.9597,1.9602,1.9617,1.9611,1.9614,1.9605,1.9616,1.962,1.9594,1.9589,1.9565,1.9579,1.963,1.955,1.9549,1.9564,1.9672,1.9692,1.9702,1.9611,1.9612,1.9613,1.9673,0,1.9717,1.9739,1.9708,1.9737,1.9743,1.97,1.9712,1.97,1.9682,1.9684,1.9664,1.9667,1.9634,1.963,1.9642,1.9621,1.9651,1.9617,1.9619,1.962,1.9623,1.9711,1.9733,1.979,1.968,1.9681,1.9682,0,1.9796,1.979,1.9819,1.9794,1.9796,1.9807,1.9799,1.9802,1.9787,1.9773,1.9767,1.9738,1.975,1.9713,1.9728,1.9705,1.9704,1.9694,1.9695,1.9694,1.9654,1.9712,1.9807,1.9816,1.9693,1.9692,1.9692,0,1.9872,1.9871,1.9888,1.9883,1.9856,1.9864,1.9853,1.9836,1.9835,1.9828,1.9826,1.9821,1.9818,1.9814,1.9784,1.976,1.9802,1.9763,1.979,1.9791,1.98,1.98,1.9897,1.9801,1.9801,1.9801,1.9801,0,1.9947,1.9966,1.9922,1.9933,1.9952,1.9917,1.9937,1.9922,1.9907,1.9913,1.9875,1.9882,1.9842,1.9844,1.9821,1.9836,1.9835,1.9824,1.9817,1.9827,1.9828,1.9825,1.982,1.9803,1.9803,1.9802,1.9802,0,2.0035,2.0007,2.0022,1.9994,1.9987,2.0003,1.9979,1.9987,1.9967,1.9975,1.9975,1.9942,1.9943,1.9913,1.9907,1.9891,1.9916,1.9902,1.9921,1.9916,1.9944,1.9942,2.0042,2.0053,1.9951,1.9952,1.9953,0,2.0085,2.0098,2.0071,2.0073,2.0063,2.0066,2.0064,2.0029,2.0028,2.0011,2.0021,2.0018,2.0014,2.0017,1.9992,1.9988,1.9973,2.0009,1.9972,1.9981,1.9973,1.9972,1.9972,2.0016,2.0018,2.0019,2.0019,0,2.0175,2.016,2.0158,2.0151,2.015,2.0143,2.0133,2.0137,2.0098,2.0099,2.0099,2.0096,2.0089,2.0086,2.0077,2.0065,2.0036,2.0031,2.0037,2.0046,2.0056,2.005,1.9941,2.0029,2.0028,2.0027,2.0027,2.0026,2.0244,2.0254,2.0236,2.0235,2.0224,2.0216,2.0222,2.0202,2.0201,2.0193,2.0172,2.0175,2.0158,2.0142,2.0133,2.0134,2.0116,2.0125,2.0127,2.0129,2.0134,2.0056,2.0132,2.0132,2.0132,2.0131,2.0131,0,2.0331,2.0318,2.0317,2.0305,2.0304,2.0277,2.0264,2.0265,2.0268,2.0255,2.0252,2.0251,2.0247,2.0223,2.0217,2.0222,2.0209,2.0222,2.0221,2.0218,2.0151,2.0146,2.0233,2.0233,2.0233,2.0233,2.0233,2.0233,2.0377,2.0391,2.0374,2.0382,2.0368,2.037,2.0365,2.0357,2.0346,2.0347,2.0344,2.0328,2.031,2.0302,2.0297,2.029,2.0289,2.0307,2.0295,2.0233,2.0223,2.0214,2.0209,2.0307,2.0307,2.0361,2.0362,2.0362]}]]